• In United Kingdom
  • List of Countries
  • For 7 days
  • Water Temperature
  • Satellite Maps
  • Weather Map
  • Weather Widgets
  • user-avatar
    Login

    Hourly Weather Lubango

    Today, 21 August, Monday

    Time Temperature Precipitation Wind Pressure Humidity
    00:00 +15°C° 0 mm 1 mps 610 mmHg 39%
    01:00 +15°C° 0 mm 1 mps 610 mmHg 39%
    02:00 +15°C° 0 mm 1 mps 609 mmHg 37%
    03:00 +14°C° 0 mm 1 mps 609 mmHg 35%
    04:00 +14°C° 0 mm 1 mps 609 mmHg 34%
    05:00 +14°C° 0 mm 2 mps 609 mmHg 31%
    06:00 +14°C° 0 mm 2 mps 609 mmHg 28%
    07:00 +14°C° 0 mm 2 mps 610 mmHg 25%
    08:00 +18°C° 0 mm 3 mps 611 mmHg 20%
    09:00 +22°C° 0 mm 3 mps 613 mmHg 16%
    10:00 +26°C° 0 mm 4 mps 614 mmHg 12%
    11:00 +28°C° 0 mm 4 mps 614 mmHg 11%
    12:00 +29°C° 0 mm 3 mps 614 mmHg 10%
    13:00 +30°C° 0 mm 3 mps 614 mmHg 9%
    14:00 +30°C° 0 mm 3 mps 613 mmHg 10%
    15:00 +30°C° 0 mm 3 mps 613 mmHg 11%
    16:00 +29°C° 0 mm 3 mps 612 mmHg 11%
    17:00 +26°C° 0 mm 3 mps 611 mmHg 18%
    18:00 +23°C° 0 mm 2 mps 610 mmHg 25%
    19:00 +18°C° 0 mm 2 mps 609 mmHg 31%
    20:00 +17°C° 0 mm 2 mps 609 mmHg 34%
    21:00 +16°C° 0 mm 2 mps 609 mmHg 37%
    22:00 +15°C° 0 mm 1 mps 609 mmHg 40%
    23:00 +15°C° 0 mm 2 mps 609 mmHg 37%

    Tomorrow, 22 August, Tuesday

    Time Temperature Precipitation Wind Pressure Humidity
    00:00 +15°C° 0 mm 2 mps 609 mmHg 35%
    01:00 +15°C° 0 mm 2 mps 609 mmHg 32%
    02:00 +15°C° 0 mm 2 mps 609 mmHg 29%
    03:00 +14°C° 0 mm 2 mps 608 mmHg 27%
    04:00 +14°C° 0 mm 2 mps 608 mmHg 24%
    05:00 +14°C° 0 mm 2 mps 608 mmHg 23%
    06:00 +14°C° 0 mm 2 mps 609 mmHg 21%
    07:00 +15°C° 0 mm 2 mps 609 mmHg 20%
    08:00 +18°C° 0 mm 3 mps 611 mmHg 18%
    09:00 +22°C° 0 mm 4 mps 612 mmHg 15%
    10:00 +27°C° 0 mm 4 mps 614 mmHg 13%
    11:00 +28°C° 0 mm 4 mps 613 mmHg 11%
    12:00 +29°C° 0 mm 4 mps 613 mmHg 10%
    13:00 +31°C° 0 mm 3 mps 613 mmHg 9%
    14:00 +31°C° 0 mm 3 mps 612 mmHg 9%
    15:00 +30°C° 0 mm 3 mps 612 mmHg 9%
    16:00 +30°C° 0 mm 3 mps 611 mmHg 9%
    17:00 +27°C° 0 mm 3 mps 610 mmHg 14%
    18:00 +24°C° 0 mm 2 mps 609 mmHg 18%
    19:00 +19°C° 0 mm 2 mps 608 mmHg 23%
    20:00 +19°C° 0 mm 1 mps 608 mmHg 26%
    21:00 +18°C° 0 mm 1 mps 608 mmHg 28%
    22:00 +16°C° 0 mm 1 mps 608 mmHg 31%
    23:00 +15°C° 0 mm 1 mps 608 mmHg 30%

    Day after tomorrow, 23 August, Wednesday

    Time Temperature Precipitation Wind Pressure Humidity
    00:00 +15°C° 0 mm 1 mps 608 mmHg 29%
    01:00 +15°C° 0 mm 1 mps 607 mmHg 28%
    02:00 +14°C° 0 mm 1 mps 607 mmHg 28%
    03:00 +14°C° 0 mm 1 mps 607 mmHg 27%
    04:00 +13°C° 0 mm 1 mps 607 mmHg 27%
    05:00 +14°C° 0 mm 1 mps 607 mmHg 26%
    06:00 +14°C° 0 mm 1 mps 608 mmHg 26%
    07:00 +14°C° 0 mm 1 mps 608 mmHg 25%
    08:00 +18°C° 0 mm 2 mps 610 mmHg 21%
    09:00 +22°C° 0 mm 3 mps 611 mmHg 17%
    10:00 +27°C° 0 mm 3 mps 613 mmHg 13%
    11:00 +28°C° 0 mm 3 mps 613 mmHg 12%
    12:00 +29°C° 0 mm 3 mps 612 mmHg 12%
    13:00 +30°C° 0 mm 2 mps 612 mmHg 11%
    14:00 +30°C° 0 mm 3 mps 611 mmHg 13%
    15:00 +29°C° 0 mm 3 mps 611 mmHg 16%
    16:00 +28°C° 0 mm 3 mps 610 mmHg 18%
    17:00 +25°C° 0 mm 3 mps 610 mmHg 30%
    18:00 +20°C° 0 mm 2 mps 609 mmHg 42%
    19:00 +17°C° 0 mm 2 mps 608 mmHg 54%
    20:00 +16°C° 0 mm 2 mps 608 mmHg 61%
    21:00 +15°C° 0 mm 1 mps 608 mmHg 68%
    22:00 +13°C° 0 mm 1 mps 608 mmHg 75%
    23:00 +13°C° 0 mm 1 mps 608 mmHg 76%

    24 August, Thursday

    Time Temperature Precipitation Wind Pressure Humidity
    00:00 +13°C° 0 mm 1 mps 608 mmHg 77%
    01:00 +12°C° 0 mm 1 mps 607 mmHg 78%
    02:00 +12°C° 0 mm 1 mps 607 mmHg 79%
    03:00 +11°C° 0 mm 1 mps 607 mmHg 79%
    04:00 +11°C° 0 mm 1 mps 607 mmHg 80%
    05:00 +11°C° 0 mm 1 mps 607 mmHg 76%
    06:00 +12°C° 0 mm 1 mps 608 mmHg 72%
    07:00 +12°C° 0 mm 1 mps 608 mmHg 69%
    08:00 +16°C° 0 mm 1 mps 610 mmHg 55%
    09:00 +19°C° 0 mm 2 mps 611 mmHg 41%
    10:00 +24°C° 0 mm 2 mps 612 mmHg 27%
    11:00 +25°C° 0 mm 2 mps 612 mmHg 25%
    12:00 +26°C° 0 mm 2 mps 612 mmHg 23%
    13:00 +28°C° 0 mm 3 mps 612 mmHg 20%
    14:00 +27°C° 0 mm 3 mps 611 mmHg 24%
    15:00 +26°C° 0 mm 3 mps 611 mmHg 27%
    16:00 +25°C° 0 mm 4 mps 610 mmHg 31%
    17:00 +21°C° 0 mm 3 mps 610 mmHg 43%
    18:00 +18°C° 0 mm 3 mps 609 mmHg 55%
    19:00 +16°C° 0 mm 2 mps 609 mmHg 67%
    20:00 +15°C° 0 mm 2 mps 609 mmHg 73%
    21:00 +14°C° 0 mm 1 mps 609 mmHg 78%
    22:00 +13°C° 0 mm 1 mps 609 mmHg 84%
    23:00 +12°C° 0 mm 1 mps 609 mmHg 85%

    25 August, Friday

    Time Temperature Precipitation Wind Pressure Humidity
    00:00 +12°C° 0 mm 1 mps 608 mmHg 86%
    01:00 +11°C° 0 mm 1 mps 608 mmHg 88%
    02:00 +11°C° 0 mm 1 mps 608 mmHg 87%
    03:00 +11°C° 0 mm 1 mps 608 mmHg 86%
    04:00 +10°C° 0 mm 0 mps 608 mmHg 86%
    05:00 +10°C° 0 mm 0 mps 608 mmHg 83%
    06:00 +11°C° 0 mm 0 mps 609 mmHg 80%
    07:00 +11°C° 0 mm 0 mps 609 mmHg 77%
    08:00 +16°C° 0 mm 1 mps 611 mmHg 63%
    09:00 +20°C° 0 mm 1 mps 612 mmHg 48%
    10:00 +24°C° 0 mm 1 mps 613 mmHg 33%
    11:00 +25°C° 0 mm 2 mps 613 mmHg 29%
    12:00 +27°C° 0 mm 2 mps 613 mmHg 25%
    13:00 +28°C° 0 mm 2 mps 612 mmHg 22%
    14:00 +28°C° 0 mm 3 mps 612 mmHg 23%
    15:00 +27°C° 0 mm 3 mps 611 mmHg 24%
    16:00 +27°C° 0 mm 4 mps 611 mmHg 25%
    17:00 +24°C° 0 mm 3 mps 610 mmHg 33%
    18:00 +20°C° 0 mm 3 mps 610 mmHg 42%
    19:00 +18°C° 0 mm 2 mps 609 mmHg 50%
    20:00 +16°C° 0 mm 2 mps 609 mmHg 55%
    21:00 +15°C° 0 mm 1 mps 609 mmHg 61%
    22:00 +14°C° 0 mm 1 mps 609 mmHg 66%
    23:00 +14°C° 0 mm 1 mps 609 mmHg 67%

    26 August, Saturday

    Time Temperature Precipitation Wind Pressure Humidity
    00:00 +13°C° 0 mm 1 mps 608 mmHg 68%
    01:00 +13°C° 0 mm 1 mps 608 mmHg 69%
    02:00 +12°C° 0 mm 1 mps 608 mmHg 69%
    03:00 +12°C° 0 mm 1 mps 608 mmHg 69%
    04:00 +11°C° 0 mm 0 mps 608 mmHg 70%
    05:00 +12°C° 0 mm 1 mps 608 mmHg 65%
    06:00 +13°C° 0 mm 1 mps 609 mmHg 61%
    07:00 +13°C° 0 mm 1 mps 609 mmHg 57%
    08:00 +18°C° 0 mm 1 mps 611 mmHg 45%
    09:00 +21°C° 0 mm 2 mps 612 mmHg 33%
    10:00 +26°C° 0 mm 2 mps 614 mmHg 21%
    11:00 +27°C° 0 mm 2 mps 614 mmHg 19%
    12:00 +28°C° 0 mm 3 mps 613 mmHg 16%
    13:00 +30°C° 0 mm 3 mps 613 mmHg 14%
    14:00 +29°C° 0 mm 3 mps 612 mmHg 14%
    15:00 +29°C° 0 mm 3 mps 612 mmHg 15%
    16:00 +28°C° 0 mm 4 mps 611 mmHg 15%
    17:00 +25°C° 0 mm 3 mps 610 mmHg 22%
    18:00 +21°C° 0 mm 2 mps 610 mmHg 29%
    19:00 +18°C° 0 mm 2 mps 609 mmHg 36%
    20:00 +17°C° 0 mm 2 mps 609 mmHg 38%
    21:00 +16°C° 0 mm 1 mps 609 mmHg 41%
    22:00 +15°C° 0 mm 1 mps 608 mmHg 44%
    23:00 +14°C° 0 mm 1 mps 608 mmHg 43%
    Show more